contact:dominique.lefevre@mio.osupytheas.fr, maurice.libes@osupytheas.fr, didier.mallarino@osupytheas.fr
Project:EMSO http://www.emso-fr.org/EMSO-France
Depth: 2436.0 m
Title:EMSO Ligure Ouest : Data MII capteur MICROCAT
DateTime_Computer,Latitude,Longitude,Temperature,Conductivity,Pressure,DateTime_Instrument
DateTime_Computer,Latitude,Longitude,degC,S m-1,dbar,DateTime_Instrument
2022-01-29T00:02:03Z,42.805,6.029,13.3005,4.60030,2470.11,2022-1-29T02:03:35Z
2022-01-29T00:05:06Z,42.805,6.029,13.3004,4.60029,2470.11,2022-1-29T02:06:38Z
2022-01-29T00:08:09Z,42.805,6.029,13.3005,4.60028,2470.147,2022-1-29T02:09:42Z
2022-01-29T00:11:12Z,42.805,6.029,13.3006,4.60030,2470.133,2022-1-29T02:12:45Z
2022-01-29T00:14:16Z,42.805,6.029,13.3008,4.60029,2470.124,2022-1-29T02:15:48Z
2022-01-29T00:17:19Z,42.805,6.029,13.3009,4.60028,2470.124,2022-1-29T02:18:51Z
2022-01-29T00:20:22Z,42.805,6.029,13.2999,4.60028,2470.133,2022-1-29T02:21:54Z
2022-01-29T00:23:25Z,42.805,6.029,13.3004,4.60031,2470.11,2022-1-29T02:24:57Z
2022-01-29T00:26:28Z,42.805,6.029,13.3004,4.60033,2470.087,2022-1-29T02:28:00Z
2022-01-29T00:29:31Z,42.805,6.029,13.3001,4.60028,2470.11,2022-1-29T02:31:03Z
2022-01-29T00:32:34Z,42.805,6.029,13.3000,4.60031,2470.11,2022-1-29T02:34:06Z
2022-01-29T00:35:37Z,42.805,6.029,13.2998,4.60033,2470.087,2022-1-29T02:37:10Z
2022-01-29T00:38:41Z,42.805,6.029,13.3001,4.60031,2470.124,2022-1-29T02:40:13Z
2022-01-29T00:41:44Z,42.805,6.029,13.3005,4.60027,2470.161,2022-1-29T02:43:16Z
2022-01-29T00:44:47Z,42.805,6.029,13.3005,4.60034,2470.11,2022-1-29T02:46:19Z
2022-01-29T00:47:50Z,42.805,6.029,13.2999,4.60039,2470.133,2022-1-29T02:49:22Z
2022-01-29T00:50:53Z,42.805,6.029,13.3004,4.60026,2470.133,2022-1-29T02:52:25Z
2022-01-29T00:53:56Z,42.805,6.029,13.3003,4.60028,2470.147,2022-1-29T02:55:28Z
2022-01-29T00:56:59Z,42.805,6.029,13.3001,4.60031,2470.147,2022-1-29T02:58:31Z
2022-01-29T01:00:02Z,42.805,6.029,13.2999,4.60027,2470.156,2022-1-29T03:01:35Z
2022-01-29T01:03:06Z,42.805,6.029,13.3005,4.60027,2470.171,2022-1-29T03:04:38Z
2022-01-29T01:06:09Z,42.805,6.029,13.3003,4.60030,2470.11,2022-1-29T03:07:41Z
2022-01-29T01:09:12Z,42.805,6.029,13.3004,4.60026,2470.156,2022-1-29T03:10:44Z
2022-01-29T01:12:15Z,42.805,6.029,13.3004,4.60031,2470.147,2022-1-29T03:13:47Z
2022-01-29T01:15:18Z,42.805,6.029,13.3005,4.60028,2470.156,2022-1-29T03:16:50Z
2022-01-29T01:18:21Z,42.805,6.029,13.3004,4.60027,2470.1,2022-1-29T03:19:53Z
2022-01-29T01:21:24Z,42.805,6.029,13.3000,4.60029,2470.133,2022-1-29T03:22:56Z
2022-01-29T01:24:27Z,42.805,6.029,13.3006,4.60029,2470.18,2022-1-29T03:26:00Z
2022-01-29T01:27:31Z,42.805,6.029,13.3001,4.60033,2470.147,2022-1-29T03:29:03Z
2022-01-29T01:30:34Z,42.805,6.029,13.3000,4.60028,2470.11,2022-1-29T03:32:06Z
2022-01-29T01:33:37Z,42.805,6.029,13.3006,4.60029,2470.133,2022-1-29T03:35:09Z
2022-01-29T01:36:40Z,42.805,6.029,13.3004,4.60031,2470.147,2022-1-29T03:38:12Z
2022-01-29T01:39:43Z,42.805,6.029,13.3005,4.60029,2470.18,2022-1-29T03:41:15Z
2022-01-29T01:42:46Z,42.805,6.029,13.3004,4.60031,2470.156,2022-1-29T03:44:18Z
2022-01-29T01:45:49Z,42.805,6.029,13.3006,4.60027,2470.156,2022-1-29T03:47:21Z
2022-01-29T01:48:52Z,42.805,6.029,13.3006,4.60027,2470.133,2022-1-29T03:50:25Z
2022-01-29T01:51:56Z,42.805,6.029,13.3000,4.60028,2470.156,2022-1-29T03:53:28Z
2022-01-29T01:54:59Z,42.805,6.029,13.3002,4.60029,2470.156,2022-1-29T03:56:31Z
2022-01-29T01:58:02Z,42.805,6.029,13.3006,4.60029,2470.133,2022-1-29T03:59:34Z
2022-01-29T02:01:05Z,42.805,6.029,13.3000,4.60031,2470.133,2022-1-29T04:02:37Z
2022-01-29T02:04:08Z,42.805,6.029,13.3003,4.60028,2470.147,2022-1-29T04:05:40Z
2022-01-29T02:07:11Z,42.805,6.029,13.3001,4.60031,2470.156,2022-1-29T04:08:43Z
2022-01-29T02:10:14Z,42.805,6.029,13.3002,4.60027,2470.156,2022-1-29T04:11:46Z
2022-01-29T02:13:17Z,42.805,6.029,13.3004,4.60027,2470.156,2022-1-29T04:14:50Z
2022-01-29T02:16:21Z,42.805,6.029,13.3003,4.60031,2470.124,2022-1-29T04:17:53Z
2022-01-29T02:19:24Z,42.805,6.029,13.3000,4.60029,2470.147,2022-1-29T04:20:56Z
2022-01-29T02:22:27Z,42.805,6.029,13.2998,4.60029,2470.143,2022-1-29T04:23:59Z
2022-01-29T02:25:30Z,42.805,6.029,13.3002,4.60028,2470.194,2022-1-29T04:27:02Z
2022-01-29T02:28:33Z,42.805,6.029,13.3003,4.60026,2470.18,2022-1-29T04:30:05Z
2022-01-29T02:31:36Z,42.805,6.029,13.3003,4.60028,2470.18,2022-1-29T04:33:08Z
2022-01-29T02:34:39Z,42.805,6.029,13.3000,4.60027,2470.156,2022-1-29T04:36:11Z
2022-01-29T02:37:42Z,42.805,6.029,13.3002,4.60031,2470.156,2022-1-29T04:39:15Z
2022-01-29T02:40:45Z,42.805,6.029,13.3001,4.60026,2470.18,2022-1-29T04:42:18Z
2022-01-29T02:43:49Z,42.805,6.029,13.3004,4.60026,2470.156,2022-1-29T04:45:21Z
2022-01-29T02:46:52Z,42.805,6.029,13.3000,4.60026,2470.133,2022-1-29T04:48:24Z
2022-01-29T02:49:55Z,42.805,6.029,13.3001,4.60028,2470.171,2022-1-29T04:51:27Z
2022-01-29T02:52:58Z,42.805,6.029,13.3002,4.60028,2470.156,2022-1-29T04:54:30Z
2022-01-29T02:56:01Z,42.805,6.029,13.2999,4.60027,2470.194,2022-1-29T04:57:33Z
2022-01-29T02:59:04Z,42.805,6.029,13.2998,4.60026,2470.156,2022-1-29T05:00:36Z
2022-01-29T03:02:07Z,42.805,6.029,13.3004,4.60029,2470.18,2022-1-29T05:03:40Z
2022-01-29T03:05:10Z,42.805,6.029,13.3000,4.60027,2470.156,2022-1-29T05:06:43Z
2022-01-29T03:08:14Z,42.805,6.029,13.3000,4.60027,2470.171,2022-1-29T05:09:46Z
2022-01-29T03:11:17Z,42.805,6.029,13.3004,4.60028,2470.156,2022-1-29T05:12:49Z
2022-01-29T03:14:20Z,42.805,6.029,13.3003,4.60026,2470.171,2022-1-29T05:15:52Z
2022-01-29T03:17:23Z,42.805,6.029,13.3004,4.60028,2470.147,2022-1-29T05:18:55Z
2022-01-29T03:20:26Z,42.805,6.029,13.3001,4.60032,2470.156,2022-1-29T05:21:58Z
2022-01-29T03:23:29Z,42.805,6.029,13.3004,4.60029,2470.156,2022-1-29T05:25:01Z
2022-01-29T03:26:32Z,42.805,6.029,13.3004,4.60031,2470.133,2022-1-29T05:28:04Z
2022-01-29T03:29:35Z,42.805,6.029,13.2998,4.60027,2470.156,2022-1-29T05:31:08Z
2022-01-29T03:32:39Z,42.805,6.029,13.3003,4.60028,2470.194,2022-1-29T05:34:11Z
2022-01-29T03:35:42Z,42.805,6.029,13.3000,4.60029,2470.194,2022-1-29T05:37:14Z
2022-01-29T03:38:45Z,42.805,6.029,13.2998,4.60028,2470.171,2022-1-29T05:40:17Z
2022-01-29T03:41:48Z,42.805,6.029,13.3002,4.60028,2470.156,2022-1-29T05:43:20Z
2022-01-29T03:44:51Z,42.805,6.029,13.3003,4.60028,2470.217,2022-1-29T05:46:23Z
2022-01-29T03:47:54Z,42.805,6.029,13.3004,4.60028,2470.18,2022-1-29T05:49:26Z
2022-01-29T03:50:57Z,42.805,6.029,13.3003,4.60031,2470.203,2022-1-29T05:52:30Z
2022-01-29T03:54:00Z,42.805,6.029,13.3000,4.60027,2470.18,2022-1-29T05:55:33Z
2022-01-29T03:57:04Z,42.805,6.029,13.3000,4.60027,2470.18,2022-1-29T05:58:36Z
2022-01-29T04:00:07Z,42.805,6.029,13.3004,4.60027,2470.18,2022-1-29T06:01:39Z
2022-01-29T04:03:10Z,42.805,6.029,13.2999,4.60028,2470.194,2022-1-29T06:04:42Z
2022-01-29T04:06:13Z,42.805,6.029,13.3004,4.60029,2470.18,2022-1-29T06:07:45Z
2022-01-29T04:09:16Z,42.805,6.029,13.3000,4.60027,2470.156,2022-1-29T06:10:48Z
2022-01-29T04:12:19Z,42.805,6.029,13.3002,4.60029,2470.217,2022-1-29T06:13:51Z
2022-01-29T04:15:22Z,42.805,6.029,13.3002,4.60031,2470.18,2022-1-29T06:16:54Z
2022-01-29T04:18:25Z,42.805,6.029,13.3000,4.60027,2470.18,2022-1-29T06:19:58Z
2022-01-29T04:21:29Z,42.805,6.029,13.3004,4.60029,2470.171,2022-1-29T06:23:01Z
2022-01-29T04:24:32Z,42.805,6.029,13.3000,4.60032,2470.18,2022-1-29T06:26:04Z
2022-01-29T04:27:35Z,42.805,6.029,13.3002,4.60028,2470.18,2022-1-29T06:29:07Z
2022-01-29T04:30:38Z,42.805,6.029,13.3004,4.60028,2470.18,2022-1-29T06:32:10Z
2022-01-29T04:33:41Z,42.805,6.029,13.3004,4.60028,2470.194,2022-1-29T06:35:13Z
2022-01-29T04:36:44Z,42.805,6.029,13.3004,4.60031,2470.18,2022-1-29T06:38:16Z
2022-01-29T04:39:47Z,42.805,6.029,13.3002,4.60029,2470.203,2022-1-29T06:41:19Z
2022-01-29T04:42:50Z,42.805,6.029,13.3005,4.60029,2470.18,2022-1-29T06:44:23Z
2022-01-29T04:45:54Z,42.805,6.029,13.3005,4.60029,2470.18,2022-1-29T06:47:26Z
2022-01-29T04:48:57Z,42.805,6.029,13.3000,4.60029,2470.217,2022-1-29T06:50:29Z
2022-01-29T04:52:00Z,42.805,6.029,13.3003,4.60029,2470.24,2022-1-29T06:53:32Z
2022-01-29T04:55:03Z,42.805,6.029,13.3003,4.60029,2470.227,2022-1-29T06:56:35Z
2022-01-29T04:58:06Z,42.805,6.029,13.3004,4.60029,2470.18,2022-1-29T06:59:38Z
2022-01-29T05:01:09Z,42.805,6.029,13.3001,4.60029,2470.227,2022-1-29T07:02:41Z
2022-01-29T05:04:12Z,42.805,6.029,13.3003,4.60029,2470.203,2022-1-29T07:05:44Z
2022-01-29T05:07:15Z,42.805,6.029,13.3000,4.60030,2470.217,2022-1-29T07:08:48Z
2022-01-29T05:10:19Z,42.805,6.029,13.2999,4.60037,2470.203,2022-1-29T07:11:51Z
2022-01-29T05:13:22Z,42.805,6.029,13.2999,4.60029,2470.217,2022-1-29T07:14:54Z
2022-01-29T05:16:25Z,42.805,6.029,13.3001,4.60029,2470.24,2022-1-29T07:17:57Z
2022-01-29T05:19:28Z,42.805,6.029,13.3004,4.60032,2470.217,2022-1-29T07:21:00Z
2022-01-29T05:22:31Z,42.805,6.029,13.3001,4.60033,2470.203,2022-1-29T07:24:03Z
2022-01-29T05:25:34Z,42.805,6.029,13.3000,4.60029,2470.194,2022-1-29T07:27:06Z
2022-01-29T05:28:37Z,42.805,6.029,13.3004,4.60029,2470.203,2022-1-29T07:30:09Z
2022-01-29T05:31:40Z,42.805,6.029,13.3000,4.60029,2470.227,2022-1-29T07:33:13Z
2022-01-29T05:34:44Z,42.805,6.029,13.3002,4.60029,2470.227,2022-1-29T07:36:16Z
2022-01-29T05:37:47Z,42.805,6.029,13.3003,4.60029,2470.227,2022-1-29T07:39:19Z
2022-01-29T05:40:50Z,42.805,6.029,13.3001,4.60030,2470.24,2022-1-29T07:42:22Z
2022-01-29T05:43:53Z,42.805,6.029,13.3002,4.60029,2470.227,2022-1-29T07:45:25Z
2022-01-29T05:46:56Z,42.805,6.029,13.3004,4.60030,2470.227,2022-1-29T07:48:28Z
2022-01-29T05:49:59Z,42.805,6.029,13.3004,4.60028,2470.24,2022-1-29T07:51:31Z
2022-01-29T05:53:02Z,42.805,6.029,13.3003,4.60033,2470.227,2022-1-29T07:54:34Z
2022-01-29T05:56:05Z,42.805,6.029,13.3000,4.60029,2470.287,2022-1-29T07:57:38Z
2022-01-29T05:59:08Z,42.805,6.029,13.3002,4.60029,2470.227,2022-1-29T08:00:41Z
2022-01-29T06:02:12Z,42.805,6.029,13.3000,4.60029,2470.25,2022-1-29T08:03:44Z
2022-01-29T06:05:15Z,42.805,6.029,13.3000,4.60029,2470.264,2022-1-29T08:06:47Z
2022-01-29T06:08:18Z,42.805,6.029,13.3004,4.60029,2470.227,2022-1-29T08:09:50Z
2022-01-29T06:11:21Z,42.805,6.029,13.3004,4.60031,2470.217,2022-1-29T08:12:53Z
2022-01-29T06:14:24Z,42.805,6.029,13.3004,4.60030,2470.227,2022-1-29T08:15:56Z
2022-01-29T06:17:27Z,42.805,6.029,13.3004,4.60034,2470.18,2022-1-29T08:18:59Z
2022-01-29T06:20:30Z,42.805,6.029,13.3000,4.60029,2470.203,2022-1-29T08:22:02Z
2022-01-29T06:23:33Z,42.805,6.029,13.3003,4.60029,2470.25,2022-1-29T08:25:06Z
2022-01-29T06:26:37Z,42.805,6.029,13.3003,4.60030,2470.203,2022-1-29T08:28:09Z
2022-01-29T06:29:40Z,42.805,6.029,13.3002,4.60029,2470.227,2022-1-29T08:31:12Z
2022-01-29T06:32:43Z,42.805,6.029,13.3006,4.60031,2470.227,2022-1-29T08:34:15Z
2022-01-29T06:35:46Z,42.805,6.029,13.3003,4.60029,2470.227,2022-1-29T08:37:18Z
2022-01-29T06:38:49Z,42.805,6.029,13.3003,4.60029,2470.203,2022-1-29T08:40:21Z
2022-01-29T06:41:52Z,42.805,6.029,13.2998,4.60030,2470.18,2022-1-29T08:43:24Z
2022-01-29T06:44:55Z,42.805,6.029,13.3001,4.60026,2470.227,2022-1-29T08:46:27Z
2022-01-29T06:47:58Z,42.805,6.029,13.2999,4.60032,2470.171,2022-1-29T08:49:31Z
2022-01-29T06:51:02Z,42.805,6.029,13.3003,4.60029,2470.24,2022-1-29T08:52:34Z
2022-01-29T06:54:05Z,42.805,6.029,13.2998,4.60026,2470.203,2022-1-29T08:55:37Z
2022-01-29T06:57:08Z,42.805,6.029,13.3007,4.60036,2470.217,2022-1-29T08:58:40Z
2022-01-29T07:00:11Z,42.805,6.029,13.3002,4.60029,2470.18,2022-1-29T09:01:43Z
2022-01-29T07:03:14Z,42.805,6.029,13.3008,4.60029,2470.217,2022-1-29T09:04:46Z
2022-01-29T07:06:17Z,42.805,6.029,13.3001,4.60029,2470.194,2022-1-29T09:07:49Z
2022-01-29T07:09:20Z,42.805,6.029,13.2998,4.60025,2470.194,2022-1-29T09:10:52Z
2022-01-29T07:12:23Z,42.805,6.029,13.2998,4.60025,2470.171,2022-1-29T09:13:56Z
2022-01-29T07:15:27Z,42.805,6.029,13.2997,4.60025,2470.171,2022-1-29T09:16:59Z
2022-01-29T07:18:30Z,42.805,6.029,13.2999,4.60024,2470.156,2022-1-29T09:20:02Z
2022-01-29T07:21:33Z,42.805,6.029,13.3000,4.60025,2470.156,2022-1-29T09:23:05Z
2022-01-29T07:24:36Z,42.805,6.029,13.2999,4.60026,2470.11,2022-1-29T09:26:08Z
2022-01-29T07:27:39Z,42.805,6.029,13.2997,4.60025,2470.156,2022-1-29T09:29:11Z
2022-01-29T07:30:42Z,42.805,6.029,13.3000,4.60025,2470.203,2022-1-29T09:32:14Z
2022-01-29T07:33:45Z,42.805,6.029,13.2995,4.60024,2470.194,2022-1-29T09:35:17Z
2022-01-29T07:36:48Z,42.805,6.029,13.3006,4.60031,2470.156,2022-1-29T09:38:21Z
2022-01-29T07:39:52Z,42.805,6.029,13.2998,4.60023,2470.18,2022-1-29T09:41:24Z
2022-01-29T07:42:55Z,42.805,6.029,13.3000,4.60023,2470.156,2022-1-29T09:44:27Z
2022-01-29T07:45:58Z,42.805,6.029,13.2996,4.60026,2470.171,2022-1-29T09:47:30Z
2022-01-29T07:49:01Z,42.805,6.029,13.2998,4.60026,2470.147,2022-1-29T09:50:33Z
2022-01-29T07:52:04Z,42.805,6.029,13.2994,4.60026,2470.133,2022-1-29T09:53:36Z
2022-01-29T07:55:07Z,42.805,6.029,13.3001,4.60024,2470.171,2022-1-29T09:56:39Z
2022-01-29T07:58:10Z,42.805,6.029,13.2996,4.60024,2470.217,2022-1-29T09:59:42Z
2022-01-29T08:01:13Z,42.805,6.029,13.3004,4.60033,2470.124,2022-1-29T10:02:46Z
2022-01-29T08:04:17Z,42.805,6.029,13.3003,4.60027,2470.133,2022-1-29T10:05:49Z
2022-01-29T08:07:20Z,42.805,6.029,13.2999,4.60025,2470.133,2022-1-29T10:08:52Z
2022-01-29T08:10:23Z,42.805,6.029,13.2998,4.60028,2470.124,2022-1-29T10:11:55Z
2022-01-29T08:13:26Z,42.805,6.029,13.3005,4.60035,2470.133,2022-1-29T10:14:58Z
2022-01-29T08:16:29Z,42.805,6.029,13.3019,4.60036,2470.11,2022-1-29T10:18:01Z
2022-01-29T08:19:32Z,42.805,6.029,13.3011,4.60043,2470.124,2022-1-29T10:21:04Z
2022-01-29T08:22:35Z,42.805,6.029,13.3019,4.60054,2470.1,2022-1-29T10:24:07Z
2022-01-29T08:25:38Z,42.805,6.029,13.3011,4.60041,2470.147,2022-1-29T10:27:11Z
2022-01-29T08:28:42Z,42.805,6.029,13.3011,4.60034,2470.11,2022-1-29T10:30:14Z
2022-01-29T08:31:45Z,42.805,6.029,13.3000,4.60031,2470.11,2022-1-29T10:33:17Z
2022-01-29T08:34:48Z,42.805,6.029,13.3013,4.60028,2470.147,2022-1-29T10:36:20Z
2022-01-29T08:37:51Z,42.805,6.029,13.3014,4.60044,2470.124,2022-1-29T10:39:23Z
2022-01-29T08:40:54Z,42.805,6.029,13.3014,4.60062,2470.1,2022-1-29T10:42:26Z
2022-01-29T08:43:57Z,42.805,6.029,13.3010,4.60025,2470.11,2022-1-29T10:45:29Z
2022-01-29T08:47:00Z,42.805,6.029,13.3013,4.60031,2470.124,2022-1-29T10:48:32Z
2022-01-29T08:50:03Z,42.805,6.029,13.3000,4.60029,2470.1,2022-1-29T10:51:36Z
2022-01-29T08:53:07Z,42.805,6.029,13.3004,4.60040,2470.124,2022-1-29T10:54:39Z
2022-01-29T08:56:10Z,42.805,6.029,13.3001,4.60041,2470.147,2022-1-29T10:57:42Z
2022-01-29T08:59:13Z,42.805,6.029,13.3000,4.60036,2470.124,2022-1-29T11:00:45Z
2022-01-29T09:02:16Z,42.805,6.029,13.3001,4.60028,2470.077,2022-1-29T11:03:48Z
2022-01-29T09:05:19Z,42.805,6.029,13.3001,4.60025,2470.133,2022-1-29T11:06:51Z
2022-01-29T09:08:22Z,42.805,6.029,13.3005,4.60057,2470.156,2022-1-29T11:09:54Z
2022-01-29T09:11:25Z,42.805,6.029,13.3027,4.60038,2470.063,2022-1-29T11:12:58Z
2022-01-29T09:14:28Z,42.805,6.029,13.3027,4.60035,2470.063,2022-1-29T11:16:01Z
2022-01-29T09:17:32Z,42.805,6.029,13.3019,4.60061,2470.063,2022-1-29T11:19:04Z
2022-01-29T09:20:35Z,42.805,6.029,13.2999,4.60043,2470.087,2022-1-29T11:22:07Z
2022-01-29T09:23:38Z,42.805,6.029,13.3011,4.60033,2470.11,2022-1-29T11:25:10Z
2022-01-29T09:26:41Z,42.805,6.029,13.3025,4.60052,2470.087,2022-1-29T11:28:13Z
2022-01-29T09:29:44Z,42.805,6.029,13.3009,4.60037,2470.063,2022-1-29T11:31:16Z
2022-01-29T09:32:47Z,42.805,6.029,13.3026,4.60043,2470.063,2022-1-29T11:34:19Z
2022-01-29T09:35:50Z,42.805,6.029,13.3018,4.60043,2470.04,2022-1-29T11:37:23Z
2022-01-29T09:38:54Z,42.805,6.029,13.3031,4.60049,2470.087,2022-1-29T11:40:26Z
2022-01-29T09:41:57Z,42.805,6.029,13.3024,4.60038,2470.1,2022-1-29T11:43:30Z
2022-01-29T09:45:00Z,42.805,6.029,13.3024,4.60047,2470.087,2022-1-29T11:46:33Z
2022-01-29T09:48:04Z,42.805,6.029,13.3016,4.60052,2470.087,2022-1-29T11:49:36Z
2022-01-29T09:51:07Z,42.805,6.029,13.3019,4.60057,2470.077,2022-1-29T11:52:39Z
2022-01-29T09:54:10Z,42.805,6.029,13.3004,4.60050,2470.063,2022-1-29T11:55:42Z
2022-01-29T09:57:13Z,42.805,6.029,13.3021,4.60046,2470.049,2022-1-29T11:58:45Z
2022-01-29T10:00:16Z,42.805,6.029,13.3041,4.60040,2470.077,2022-1-29T12:01:48Z
2022-01-29T10:03:19Z,42.805,6.029,13.3003,4.60042,2470.063,2022-1-29T12:04:51Z
2022-01-29T10:06:22Z,42.805,6.029,13.3028,4.60049,2470.04,2022-1-29T12:07:55Z
2022-01-29T10:09:26Z,42.805,6.029,13.3022,4.60037,2470.053,2022-1-29T12:10:58Z
2022-01-29T10:12:29Z,42.805,6.029,13.3018,4.60057,2470.053,2022-1-29T12:14:01Z
2022-01-29T10:15:32Z,42.805,6.029,13.3033,4.60057,2470.077,2022-1-29T12:17:04Z
2022-01-29T10:18:35Z,42.805,6.029,13.3013,4.60062,2470.063,2022-1-29T12:20:07Z
2022-01-29T10:21:38Z,42.805,6.029,13.3026,4.60054,2470.03,2022-1-29T12:23:10Z
2022-01-29T10:24:41Z,42.805,6.029,13.3014,4.60067,2470.03,2022-1-29T12:26:13Z
2022-01-29T10:27:44Z,42.805,6.029,13.3008,4.60033,2470.063,2022-1-29T12:29:16Z
2022-01-29T10:30:47Z,42.805,6.029,13.3009,4.60044,2470.077,2022-1-29T12:32:20Z
2022-01-29T10:33:51Z,42.805,6.029,13.3019,4.60057,2470.026,2022-1-29T12:35:23Z
2022-01-29T10:36:54Z,42.805,6.029,13.3026,4.60057,2470.017,2022-1-29T12:38:26Z
2022-01-29T10:39:57Z,42.805,6.029,13.3024,4.60069,2469.993,2022-1-29T12:41:29Z
2022-01-29T10:43:00Z,42.805,6.029,13.3028,4.60057,2470.03,2022-1-29T12:44:32Z
2022-01-29T10:46:03Z,42.805,6.029,13.3026,4.60049,2470.03,2022-1-29T12:47:35Z
2022-01-29T10:49:06Z,42.805,6.029,13.3026,4.60084,2470.017,2022-1-29T12:50:38Z
2022-01-29T10:52:09Z,42.805,6.029,13.3019,4.60087,2470.03,2022-1-29T12:53:41Z
2022-01-29T10:55:12Z,42.805,6.029,13.3021,4.60094,2470.077,2022-1-29T12:56:45Z
2022-01-29T10:58:16Z,42.805,6.029,13.3023,4.60063,2469.984,2022-1-29T12:59:48Z
2022-01-29T11:01:19Z,42.805,6.029,13.3006,4.60073,2470.007,2022-1-29T13:02:51Z
2022-01-29T11:04:22Z,42.805,6.029,13.3020,4.60049,2470.03,2022-1-29T13:05:54Z
2022-01-29T11:07:25Z,42.805,6.029,13.3024,4.60046,2469.984,2022-1-29T13:08:57Z
2022-01-29T11:10:28Z,42.805,6.029,13.3037,4.60039,2470.007,2022-1-29T13:12:00Z
2022-01-29T11:13:31Z,42.805,6.029,13.3025,4.60062,2470.017,2022-1-29T13:15:03Z
2022-01-29T11:16:34Z,42.805,6.029,13.3020,4.60059,2469.993,2022-1-29T13:18:06Z
2022-01-29T11:19:37Z,42.805,6.029,13.3020,4.60046,2469.993,2022-1-29T13:21:10Z
2022-01-29T11:22:41Z,42.805,6.029,13.3017,4.60067,2469.993,2022-1-29T13:24:13Z
2022-01-29T11:25:44Z,42.805,6.029,13.3026,4.60057,2470.007,2022-1-29T13:27:16Z
2022-01-29T11:28:47Z,42.805,6.029,13.3023,4.60069,2469.993,2022-1-29T13:30:19Z
2022-01-29T11:31:50Z,42.805,6.029,13.3022,4.60065,2470.017,2022-1-29T13:33:22Z
2022-01-29T11:34:53Z,42.805,6.029,13.3023,4.60079,2470.007,2022-1-29T13:36:25Z
2022-01-29T11:37:56Z,42.805,6.029,13.3032,4.60102,2469.984,2022-1-29T13:39:28Z
2022-01-29T11:40:59Z,42.805,6.029,13.3037,4.60057,2470.007,2022-1-29T13:42:32Z
2022-01-29T11:44:02Z,42.805,6.029,13.3021,4.60058,2470.017,2022-1-29T13:45:35Z
2022-01-29T11:47:06Z,42.805,6.029,13.3036,4.60098,2470.077,2022-1-29T13:48:38Z
2022-01-29T11:50:09Z,42.805,6.029,13.3026,4.60133,2469.947,2022-1-29T13:51:41Z
2022-01-29T11:53:12Z,42.805,6.029,13.3023,4.60101,2469.97,2022-1-29T13:54:44Z
2022-01-29T11:56:15Z,42.805,6.029,13.3021,4.60110,2470.03,2022-1-29T13:57:47Z
2022-01-29T11:59:18Z,42.805,6.029,13.3016,4.60097,2470.007,2022-1-29T14:00:50Z
2022-01-29T12:02:21Z,42.805,6.029,13.3026,4.60054,2470.007,2022-1-29T14:03:53Z
2022-01-29T12:05:24Z,42.805,6.029,13.3022,4.60097,2470.063,2022-1-29T14:06:57Z
2022-01-29T12:08:27Z,42.805,6.029,13.3021,4.60150,2469.993,2022-1-29T14:10:00Z
2022-01-29T12:11:31Z,42.805,6.029,13.3029,4.60098,2469.947,2022-1-29T14:13:03Z
2022-01-29T12:14:34Z,42.805,6.029,13.3016,4.60125,2469.993,2022-1-29T14:16:06Z
2022-01-29T12:17:37Z,42.805,6.029,13.3022,4.60137,2469.97,2022-1-29T14:19:09Z
2022-01-29T12:20:40Z,42.805,6.029,13.3006,4.60104,2469.97,2022-1-29T14:22:12Z
2022-01-29T12:23:43Z,42.805,6.029,13.3031,4.60104,2470.017,2022-1-29T14:25:15Z
2022-01-29T12:26:46Z,42.805,6.029,13.3021,4.60087,2469.97,2022-1-29T14:28:18Z
2022-01-29T12:29:49Z,42.805,6.029,13.3023,4.60107,2469.923,2022-1-29T14:31:22Z
2022-01-29T12:32:53Z,42.805,6.029,13.3029,4.60061,2469.984,2022-1-29T14:34:25Z
2022-01-29T12:35:56Z,42.805,6.029,13.3036,4.60085,2469.96,2022-1-29T14:37:28Z
2022-01-29T12:38:59Z,42.805,6.029,13.3034,4.60074,2469.937,2022-1-29T14:40:31Z
2022-01-29T12:42:02Z,42.805,6.029,13.3056,4.60064,2469.96,2022-1-29T14:43:34Z
2022-01-29T12:45:05Z,42.805,6.029,13.3055,4.60092,2469.96,2022-1-29T14:46:37Z
2022-01-29T12:48:08Z,42.805,6.029,13.3055,4.60117,2469.947,2022-1-29T14:49:40Z
2022-01-29T12:51:11Z,42.805,6.029,13.3061,4.60087,2469.984,2022-1-29T14:52:43Z
2022-01-29T12:54:14Z,42.805,6.029,13.3086,4.60093,2469.937,2022-1-29T14:55:47Z
2022-01-29T12:57:18Z,42.805,6.029,13.3041,4.60125,2469.947,2022-1-29T14:58:50Z
2022-01-29T13:00:21Z,42.805,6.029,13.3039,4.60112,2469.984,2022-1-29T15:01:53Z
2022-01-29T13:03:24Z,42.805,6.029,13.3011,4.60121,2469.96,2022-1-29T15:04:56Z
2022-01-29T13:06:27Z,42.805,6.029,13.3003,4.60115,2469.923,2022-1-29T15:07:59Z
2022-01-29T13:09:30Z,42.805,6.029,13.3009,4.60113,2469.96,2022-1-29T15:11:02Z
2022-01-29T13:12:33Z,42.805,6.029,13.3001,4.60091,2469.947,2022-1-29T15:14:05Z
2022-01-29T13:15:36Z,42.805,6.029,13.3003,4.60076,2470.007,2022-1-29T15:17:08Z
2022-01-29T13:18:39Z,42.805,6.029,13.2999,4.60074,2469.984,2022-1-29T15:20:12Z
2022-01-29T13:21:43Z,42.805,6.029,13.2995,4.60071,2469.993,2022-1-29T15:23:15Z
2022-01-29T13:24:46Z,42.805,6.029,13.3001,4.60061,2469.947,2022-1-29T15:26:18Z
2022-01-29T13:27:49Z,42.805,6.029,13.3000,4.60058,2469.993,2022-1-29T15:29:21Z
2022-01-29T13:30:52Z,42.805,6.029,13.2999,4.60059,2470.017,2022-1-29T15:32:24Z
2022-01-29T13:33:55Z,42.805,6.029,13.2996,4.60052,2469.97,2022-1-29T15:35:27Z
2022-01-29T13:36:58Z,42.805,6.029,13.3001,4.60049,2469.96,2022-1-29T15:38:30Z
2022-01-29T13:40:01Z,42.805,6.029,13.3001,4.60044,2469.984,2022-1-29T15:41:33Z
2022-01-29T13:43:04Z,42.805,6.029,13.3000,4.60046,2469.97,2022-1-29T15:44:37Z
2022-01-29T13:46:08Z,42.805,6.029,13.2998,4.60046,2469.937,2022-1-29T15:47:40Z
2022-01-29T13:49:11Z,42.805,6.029,13.3000,4.60035,2469.97,2022-1-29T15:50:43Z
2022-01-29T13:52:14Z,42.805,6.029,13.2999,4.60036,2469.97,2022-1-29T15:53:46Z
2022-01-29T13:55:17Z,42.805,6.029,13.2996,4.60033,2469.96,2022-1-29T15:56:49Z
2022-01-29T13:58:20Z,42.805,6.029,13.3000,4.60036,2469.97,2022-1-29T15:59:52Z
2022-01-29T14:01:23Z,42.805,6.029,13.3000,4.60032,2469.984,2022-1-29T16:02:55Z
2022-01-29T14:04:26Z,42.805,6.029,13.3000,4.60031,2469.97,2022-1-29T16:05:59Z
2022-01-29T14:07:29Z,42.805,6.029,13.2996,4.60030,2469.947,2022-1-29T16:09:02Z
2022-01-29T14:10:33Z,42.805,6.029,13.2996,4.60029,2469.984,2022-1-29T16:12:05Z
2022-01-29T14:13:36Z,42.805,6.029,13.2996,4.60031,2469.97,2022-1-29T16:15:08Z
2022-01-29T14:16:39Z,42.805,6.029,13.3000,4.60031,2469.97,2022-1-29T16:18:11Z
2022-01-29T14:19:42Z,42.805,6.029,13.3000,4.60030,2469.97,2022-1-29T16:21:14Z
2022-01-29T14:22:45Z,42.805,6.029,13.2998,4.60033,2469.947,2022-1-29T16:24:17Z
2022-01-29T14:25:48Z,42.805,6.029,13.2996,4.60029,2469.993,2022-1-29T16:27:20Z
2022-01-29T14:28:51Z,42.805,6.029,13.2999,4.60028,2469.984,2022-1-29T16:30:24Z
2022-01-29T14:31:55Z,42.805,6.029,13.2999,4.60027,2469.984,2022-1-29T16:33:27Z
2022-01-29T14:34:58Z,42.805,6.029,13.2997,4.60028,2469.96,2022-1-29T16:36:30Z
2022-01-29T14:38:01Z,42.805,6.029,13.2996,4.60027,2469.993,2022-1-29T16:39:33Z
2022-01-29T14:41:04Z,42.805,6.029,13.2998,4.60026,2469.993,2022-1-29T16:42:36Z
2022-01-29T14:44:07Z,42.805,6.029,13.2996,4.60026,2469.97,2022-1-29T16:45:39Z
2022-01-29T14:47:10Z,42.805,6.029,13.2998,4.60029,2470.007,2022-1-29T16:48:42Z
2022-01-29T14:50:13Z,42.805,6.029,13.3000,4.60031,2469.984,2022-1-29T16:51:45Z
2022-01-29T14:53:16Z,42.805,6.029,13.3000,4.60030,2469.993,2022-1-29T16:54:49Z
2022-01-29T14:56:20Z,42.805,6.029,13.2996,4.60030,2470.007,2022-1-29T16:57:52Z
2022-01-29T14:59:23Z,42.805,6.029,13.2999,4.60029,2469.97,2022-1-29T17:00:55Z
2022-01-29T15:02:26Z,42.805,6.029,13.3000,4.60028,2470.017,2022-1-29T17:03:58Z
2022-01-29T15:05:29Z,42.805,6.029,13.2996,4.60026,2470.017,2022-1-29T17:07:01Z
2022-01-29T15:08:32Z,42.805,6.029,13.2997,4.60026,2469.97,2022-1-29T17:10:04Z
2022-01-29T15:11:35Z,42.805,6.029,13.2998,4.60026,2470.017,2022-1-29T17:13:07Z
2022-01-29T15:14:38Z,42.805,6.029,13.2997,4.60026,2469.993,2022-1-29T17:16:10Z